Helsinki, Finland

10:11 AM EET on February 20, 2018 (GMT +0200)
Vantaa

Weather History for EFHK - March, 2013

Change the Weather History Date:

Saturday, March 30, 2013

  Actual Average Record
Temperature  
Mean Temperature 26 °F -  
Max Temperature 36 °F 46 °F 55 °F (2007)
Min Temperature 15 °F 29 °F 15 °F (2013)
Degree Days  
Heating Degree Days 40    
Moisture  
Dew Point 16 °F    
Average Humidity 67    
Maximum Humidity 86    
Minimum Humidity 33    
Precipitation  
Precipitation 0.00 in 0.05 in - ()
Sea Level Pressure  
Sea Level Pressure 29.87 in    
Wind  
Wind Speed 7 mph ()    
Max Wind Speed 15 mph    
Max Gust Speed -    
Visibility 6.2 miles    
Events      
Averages and records for this station are not official NWS values.
T = Trace of Precipitation, MM = Missing Value Source: Averaged Metar Reports

Daily Weather History Graph

Daily Weather History Graph

Search for Another Location

Airport or City:

Trip Planner

Search our weather history database for the weather conditions in past years. The results will help you decide how hot, cold, wet, or windy it might be!

Date:

Astronomy

Mar. 30, 2013 Rise Set
Actual Time 5:50 AM EET 6:59 PM EET
Civil Twilight 5:08 AM EET 7:42 PM EET
Nautical Twilight 4:14 AM EET 8:36 PM EET
Astronomical Twilight 3:13 AM EET 9:38 PM EET
Moon 11:52 PM EET (3/30) 6:34 AM EET (3/30)
Length of Visible Light 14h 34m
Length of Day
13h 08m
Waning Gibbous, 88% of the Moon is Illuminated
Mar 30
Waning Gibbous
Apr 3
Last Quarter
Apr 10
New
Apr 18
First Quarter
Apr 25
Full

Hourly Weather History & Observations

Time (EET) Temp. Windchill Dew Point Humidity Pressure Visibility Wind Dir Wind Speed Gust Speed Precip Events Conditions
12:20 AM 21.2 °F 12.6 °F 15.8 °F 80% 30.04 in - ENE 6.9 mph - N/A   Clear
12:50 AM 21.2 °F 12.6 °F 15.8 °F 80% 30.04 in - ENE 6.9 mph - N/A   Clear
1:20 AM 21.2 °F 13.6 °F 15.8 °F 80% 30.04 in - NE 5.8 mph - N/A   Clear
1:50 AM 15.8 °F 6.1 °F 12.2 °F 86% 30.01 in - ENE 6.9 mph - N/A   Clear
2:00 AM 20 °F - 16 °F 76% 30.06 in 31 mi ENE 8.9 mph - -  
2:20 AM 17.6 °F 9.3 °F 14.0 °F 86% 30.01 in - NE 5.8 mph - N/A   Clear
2:50 AM 17.6 °F 10.7 °F 14.0 °F 86% 29.98 in - NE 4.6 mph - N/A   Clear
3:20 AM 19.4 °F 11.5 °F 15.8 °F 86% 29.98 in - ENE 5.8 mph - N/A   Clear
3:50 AM 19.4 °F 10.4 °F 15.8 °F 86% 29.98 in - ENE 6.9 mph - N/A   Clear
4:20 AM 21.2 °F 10.9 °F 17.6 °F 86% 29.98 in - NE 9.2 mph - N/A   Clear
4:50 AM 19.4 °F 8.6 °F 15.8 °F 86% 29.95 in - NE 9.2 mph - N/A   Clear
5:20 AM 19.4 °F 8.6 °F 15.8 °F 86% 29.95 in - NE 9.2 mph - N/A   Clear
5:50 AM 19.4 °F 7.9 °F 14.0 °F 80% 29.95 in - NE 10.4 mph - N/A   Clear
6:20 AM 19.4 °F 9.5 °F 14.0 °F 80% 29.92 in - NE 8.1 mph - N/A   Clear
6:50 AM 21.2 °F 10.9 °F 15.8 °F 80% 29.92 in - NE 9.2 mph - N/A   Clear
7:20 AM 21.2 °F 10.9 °F 15.8 °F 80% 29.92 in - NE 9.2 mph - N/A   Clear
7:50 AM 23.0 °F 13.1 °F 17.6 °F 80% 29.92 in - NE 9.2 mph - N/A   Clear
8:00 AM 23 °F - 17 °F 70% 29.95 in 25 mi ENE 11.2 mph - -  
8:20 AM 24.8 °F 14.6 °F 17.6 °F 74% 29.89 in - NE 10.4 mph - N/A   Clear
8:50 AM 24.8 °F 15.3 °F 17.6 °F 74% 29.89 in - NE 9.2 mph - N/A   Clear
9:20 AM 28.4 °F 19.1 °F 17.6 °F 64% 29.89 in - NE 10.4 mph - N/A   Clear
9:50 AM 28.4 °F 19.7 °F 19.4 °F 69% 29.86 in - NE 9.2 mph - N/A   Clear
10:20 AM 30.2 °F 21.9 °F 17.6 °F 60% 29.86 in - NE 9.2 mph - N/A   Clear
10:50 AM 30.2 °F 21.3 °F 19.4 °F 64% 29.86 in - NE 10.4 mph - N/A   Clear
11:20 AM 32.0 °F 23.0 °F 17.6 °F 55% 29.83 in - NE 11.5 mph - N/A   Clear
11:50 AM 33.8 °F 24.8 °F 19.4 °F 56% 29.83 in - NNE 12.7 mph - N/A   Clear
12:20 PM 33.8 °F 25.3 °F 15.8 °F 48% 29.83 in - NE 11.5 mph - N/A   Clear
12:50 PM 33.8 °F 24.3 °F 15.8 °F 48% 29.80 in - ENE 13.8 mph - N/A   Clear
1:20 PM 35.6 °F 26.2 °F 15.8 °F 44% 29.80 in - NE 15.0 mph - N/A   Clear
1:50 PM 35.6 °F 27.1 °F 17.6 °F 48% 29.80 in - NE 12.7 mph - N/A   Clear
2:00 PM 36 °F - 17 °F 33% 29.82 in 25 mi ENE 13.4 mph - -  
2:20 PM 35.6 °F 26.2 °F 17.6 °F 48% 29.80 in - NE 15.0 mph - N/A   Clear
2:50 PM 35.6 °F 27.1 °F 15.8 °F 44% 29.80 in - East 12.7 mph - N/A   Clear
3:20 PM 35.6 °F 26.2 °F 8.6 °F 33% 29.80 in - ENE 15.0 mph - N/A   Clear
3:50 PM 33.8 °F 26.4 °F 10.4 °F 38% 29.80 in 6.2 mi East 9.2 mph - N/A   Mostly Cloudy
4:20 PM 33.8 °F 25.3 °F 14.0 °F 44% 29.80 in 6.2 mi East 11.5 mph - N/A   Mostly Cloudy
4:50 PM 32.0 °F 24.8 °F 19.4 °F 60% 29.80 in 6.2 mi East 8.1 mph - N/A   Mostly Cloudy
5:20 PM 32.0 °F 24.8 °F 15.8 °F 51% 29.80 in 6.2 mi East 8.1 mph - N/A   Mostly Cloudy
5:50 PM 30.2 °F 22.6 °F 17.6 °F 60% 29.80 in 6.2 mi East 8.1 mph - N/A   Mostly Cloudy
6:20 PM 30.2 °F 24.3 °F 17.6 °F 60% 29.80 in 6.2 mi East 5.8 mph - N/A   Mostly Cloudy
6:50 PM 30.2 °F 24.3 °F 17.6 °F 60% 29.80 in 6.2 mi East 5.8 mph - N/A   Mostly Cloudy
7:20 PM 28.4 °F 24.6 °F 19.4 °F 69% 29.80 in - ESE 3.5 mph - N/A   Clear
7:50 PM 28.4 °F - 19.4 °F 69% 29.80 in - Variable 2.3 mph - N/A   Clear
8:00 PM 28 °F - 19 °F 57% 29.83 in 31 mi ESE 4.5 mph - -  
8:20 PM 26.6 °F 22.6 °F 19.4 °F 74% 29.80 in - NE 3.5 mph - N/A   Clear
8:50 PM 26.6 °F 22.6 °F 19.4 °F 74% 29.80 in - NNE 3.5 mph - N/A   Clear
9:20 PM 24.8 °F - 17.6 °F 74% 29.80 in - NNE 2.3 mph - N/A   Clear
9:50 PM 26.6 °F 22.6 °F 15.8 °F 64% 29.80 in - North 3.5 mph - N/A   Clear
10:20 PM 24.8 °F 20.5 °F 15.8 °F 69% 29.80 in - North 3.5 mph - N/A   Clear
10:50 PM 23.0 °F 18.4 °F 15.8 °F 74% 29.80 in 6.2 mi North 3.5 mph - N/A   Mostly Cloudy
11:20 PM 21.2 °F 16.4 °F 14.0 °F 74% 29.80 in 6.2 mi NNE 3.5 mph - N/A   Mostly Cloudy
11:50 PM 21.2 °F 16.4 °F 14.0 °F 74% 29.80 in 6.2 mi NNE 3.5 mph - N/A   Mostly Cloudy